Weather Roundup
Issued by NWS Chicago, IL

Home | Current Version | Previous Version | Text Only | Print | Product List | Glossary On
Versions: 1 2 3 4 5 6 7 8 9 10 11 12 13 14 15 16 17 18 19 20 21 22 23 24 25 26 27 28 29 30 31 32 33 34 35 36 37 38 39 40 41 42 43 44 45 46 47 48 49 50
055
NZUS59 KLOT 191512
HRRLOT

CHICAGO AREA WEATHER ROUNDUP
NATIONAL WEATHER SERVICE CHICAGO/ROMEOVILLE IL
900 AM CST THU JAN 19 2017

NOTE: "FAIR" INDICATES FEW OR NO CLOUDS BELOW 12,000 FEET WITH NO
SIGNIFICANT WEATHER AND/OR OBSTRUCTIONS TO VISIBILITY.

* THESE STATIONS ARE NOT UNDER NWS QUALITY CONTROL. THEY ALSO MAY NOT
  REPORT WEATHER SUCH AS PRECIPITATION OR FOG.

ILZ005-006-012>014-019>023-191600-
NORTHEAST ILLINOIS

CITY           SKY/WX    TMP DP  RH WIND       PRES   REMARKS
OHARE          CLOUDY    35  34  96 SE6       29.99F FOG     WCI  30
MIDWAY         CLOUDY    35  33  92 SE6       30.01S FOG     WCI  30
AURORA         CLOUDY    34  33  96 SE5       29.99R FOG     WCI  30
LANSING*       CLOUDY    35  35 100 SE5       30.02R FOG     WCI  31
JOLIET*        MOSUNNY   36  35  97 SE6       30.00S FOG
WAUKEGAN       FOG       34  34 100 S5        29.98F VSB<1/4 WCI  30
DUPAGE AIRPORT FOG       34  33  96 S6        29.98S VSB 1/4 WCI  29
WHEELING       CLOUDY    35  34  96 S5        30.01S FOG     WCI  31
KANKAKEE*      CLOUDY    35  34  96 CALM      30.01S FOG
MORRIS*          N/A     34  33  96 E5        29.97F FOG     WCI  30
LEWIS AIRPORT* CLOUDY    34  34 100 S6        30.00R FOG     WCI  29
NORTHERLY ISL    N/A     36  33  89 SE3         N/A
$$

WIZ051-052-058>065-066-070>072-191600-
SOUTHEAST WISCONSIN

CITY           SKY/WX    TMP DP  RH WIND       PRES   REMARKS
MILWAUKEE      FOG       33  32  96 SW6       29.99R VSB 1/4 WCI  28
KENOSHA*       FOG       33  32  96 S8        29.98S VSB<1/4 WCI  26
RACINE*        FOG       33  32  96 S5        30.00S VSB<1/4 WCI  29
WAUKESHA       FOG       30  30 100 S5        29.98R VSB 1/8 WCI  25
WEST BEND      FOG       32  32 100 S5        29.98R VSB<1/4 WCI  27
$$

INZ001>003-010>013-019-020-191600-
NORTHWEST INDIANA

CITY           SKY/WX    TMP DP  RH WIND       PRES   REMARKS
GARY*          CLOUDY    37  36  93 SE7       30.02F FOG
MICHIGAN CITY* NOT AVBL
RENSSELAER*    NOT AVBL
VALPARAISO     FOG       36  36 100 SE6       30.03S VSB 1/2
$$

LMZ740>746-191600-
SOUTHERN LAKE MICHIGAN

STATION/POSITION TIME  SKY/WX   TEMP WIND        PRES    VSBY
                                AIR  DIR/SP/G
                 (UTC)          (F)  (DEG/KT/KT) (MB)    (MI)
HARRISON CRIB    1440            35  160/  9/ 10   N/A
BURNHAM HARBOR   1500            36  130/  3/ 10   N/A
CALUMET HARBOR   1442            36  170/  5/  7 1015.6F
BURNS HARBOR     1440            36  170/  9/ 12 1017.3S
MICHIGAN CITY    NOT AVBL
$$

ABBREVIATIONS USED IN REMARKS
   TC - TEMPERATURE IN CELSIUS
  WCI - WIND CHILL INDEX
   HX - HEAT INDEX
  VSB - VISIBILITY
$$




USA.gov is the U.S. government's official web portal to all federal, state and local government web resources and services.